Weather History for KLWD - May, 2013

Change the Weather History Date:

Thursday, May 2, 2013

  Actual Average Record
Temperature  
Mean Temperature 38 °F 57 °F  
Max Temperature 42 °F 67 °F 90 °F (1968)
Min Temperature 33 °F 46 °F 30 °F (1967)
Degree Days  
Heating Degree Days 27 9  
Month to date heating degree days 39 18  
Since 1 July heating degree days 5919 5913  
Cooling Degree Days 0 0  
Month to date cooling degree days 0 0  
Year to date cooling degree days 12 7  
Moisture  
Dew Point 32 °F    
Average Humidity 81    
Maximum Humidity 92    
Minimum Humidity 70    
Precipitation  
Precipitation 1.56 in 0.17 in 1.56 in (2013)
Month to date precipitation 1.56 0.34  
Sea Level Pressure  
Sea Level Pressure 30.34 in    
Wind  
Wind Speed 19 mph (North)    
Max Wind Speed 36 mph    
Max Gust Speed 47 mph    
Visibility 4 miles    
Events Fog , Rain , Snow , Thunderstorm    
T = Trace of Precipitation, MM = Missing Value Source: NWS Daily Summary

Daily Weather History Graph

Daily Weather History Graph

Search for Another Location

Airport or City:

Trip Planner

Search our weather history database for the weather conditions in past years. The results will help you decide how hot, cold, wet, or windy it might be!

Date:

Astronomy

May. 02, 2013 Rise Set
Actual Time 6:12 AM CDT 8:12 PM CDT
Civil Twilight 5:43 AM CDT 8:42 PM CDT
Nautical Twilight 5:06 AM CDT 9:19 PM CDT
Astronomical Twilight 4:27 AM CDT 9:58 PM CDT
Moon 2:02 AM CDT (5/2) 1:01 PM CDT (5/2)
Length of Visible Light 14h 59m
Length of Day
14h 00m
Waning Gibbous, 47% of the Moon is Illuminated
May 2
Waning Gibbous
May 9
New
May 17
First Quarter
May 24
Full
May 31
Last Quarter

Hourly Weather History & Observations

Time (CDT) Temp. Windchill Dew Point Humidity Pressure Visibility Wind Dir Wind Speed Gust Speed Precip Events Conditions
12:53 AM 42.1 °F 33.1 °F 34.0 °F 73% 30.23 in 10.0 mi NNE 20.7 mph 38.0 mph N/A   Overcast
1:53 AM 41.0 °F 30.0 °F 35.1 °F 79% 30.24 in 10.0 mi North 28.8 mph 43.7 mph 0.00 in Rain , Thunderstorm Light Rain
2:10 AM 39.2 °F 28.7 °F 35.6 °F 87% 30.25 in 4.0 mi North 23.0 mph 32.2 mph 0.06 in Rain , Thunderstorm Heavy Rain
2:33 AM 39.2 °F 28.7 °F 35.6 °F 87% 30.25 in 3.0 mi North 23.0 mph 32.2 mph 0.15 in Rain Heavy Rain
2:38 AM 39.2 °F 28.7 °F 35.6 °F 87% 30.25 in 2.5 mi NNE 23.0 mph 32.2 mph 0.21 in Rain , Thunderstorm Heavy Rain
2:40 AM 39.2 °F 29.3 °F 35.6 °F 87% 30.25 in 3.0 mi North 20.7 mph 32.2 mph 0.22 in Rain , Thunderstorm Rain
2:53 AM 39.0 °F 27.8 °F 36.0 °F 89% 30.23 in 7.0 mi NNE 26.5 mph 33.4 mph 0.23 in Rain Light Rain
3:53 AM 39.0 °F 29.6 °F 36.0 °F 89% 30.27 in 10.0 mi North 18.4 mph 36.8 mph 0.01 in   Overcast
4:53 AM 37.9 °F 28.9 °F 35.1 °F 89% 30.31 in 4.0 mi NNE 16.1 mph 25.3 mph 0.11 in Rain Rain
5:19 AM 37.4 °F 26.9 °F 35.6 °F 93% 30.27 in 4.0 mi North 20.7 mph 28.8 mph 0.07 in Rain Rain
5:45 AM 37.4 °F 27.8 °F 35.6 °F 93% 30.27 in 5.0 mi NNE 17.3 mph 31.1 mph N/A Rain Rain
5:53 AM 37.0 °F 27.4 °F 35.1 °F 93% 30.29 in 5.0 mi North 17.3 mph 25.3 mph 0.22 in Rain Rain
6:53 AM 36.0 °F 25.3 °F 34.0 °F 93% 30.34 in 5.0 mi North 19.6 mph 24.2 mph 0.24 in Rain Rain
7:00 AM 35.6 °F 24.8 °F 33.8 °F 93% 30.32 in 5.0 mi North 19.6 mph 29.9 mph 0.04 in Rain Rain
7:53 AM 36.0 °F 24.2 °F 33.1 °F 89% 30.35 in 5.0 mi North 24.2 mph 36.8 mph 0.22 in Rain Light Rain
8:18 AM 35.6 °F 24.2 °F 33.8 °F 93% 30.36 in 10.0 mi North 21.9 mph 29.9 mph 0.03 in Rain Light Rain
8:53 AM 36.0 °F 24.7 °F 33.1 °F 89% 30.38 in 10.0 mi North 21.9 mph 34.5 mph 0.03 in Rain Light Rain
9:53 AM 36.0 °F 25.0 °F 33.1 °F 89% 30.38 in 5.0 mi North 20.7 mph 29.9 mph 0.06 in Rain Light Rain
10:53 AM 35.1 °F 22.7 °F 33.1 °F 92% 30.38 in 8.0 mi North 25.3 mph 35.7 mph 0.01 in   Overcast
11:20 AM 35.6 °F 23.2 °F 33.8 °F 93% 30.37 in 9.0 mi North 26.5 mph 33.4 mph 0.01 in   Overcast
11:53 AM 36.0 °F 25.6 °F 33.1 °F 89% 30.42 in 10.0 mi North 18.4 mph 32.2 mph 0.01 in Rain Light Rain
12:42 PM 35.6 °F 24.5 °F 33.8 °F 93% 30.39 in 10.0 mi North 20.7 mph 27.6 mph 0.00 in   Overcast
12:53 PM 36.0 °F 24.7 °F 33.1 °F 89% 30.40 in 8.0 mi North 21.9 mph 29.9 mph 0.00 in Snow Light Snow
1:53 PM 35.1 °F 23.8 °F 32.0 °F 89% 30.40 in 3.0 mi North 20.7 mph 26.5 mph 0.02 in Snow Light Snow
2:08 PM 33.8 °F 22.5 °F 32.0 °F 93% 30.36 in 2.0 mi North 19.6 mph 33.4 mph 0.01 in Snow Light Snow
2:15 PM 33.8 °F 22.2 °F 30.2 °F 87% 30.36 in 1.5 mi North 20.7 mph 33.4 mph 0.01 in Snow Light Snow
2:53 PM 33.1 °F 21.5 °F 30.9 °F 92% 30.40 in 1.0 mi North 19.6 mph 31.1 mph 0.05 in Snow Light Snow
3:06 PM 33.8 °F 23.9 °F 30.2 °F 87% 30.37 in 0.8 mi North 15.0 mph 29.9 mph 0.02 in Snow Light Snow
3:15 PM 33.8 °F 22.8 °F 30.2 °F 87% 30.36 in 1.0 mi North 18.4 mph 32.2 mph 0.02 in Snow Light Snow
3:35 PM 33.8 °F 24.3 °F 30.2 °F 87% 30.36 in 0.8 mi North 13.8 mph 25.3 mph 0.03 in Snow Light Snow
3:53 PM 33.1 °F 21.2 °F 30.9 °F 92% 30.39 in 0.5 mi North 20.7 mph 27.6 mph 0.04 in Fog , Snow Snow
4:18 PM 33.8 °F 22.2 °F 30.2 °F 87% 30.37 in 1.0 mi North 20.7 mph 27.6 mph 0.02 in Snow Light Snow
4:25 PM 33.8 °F 23.5 °F 30.2 °F 87% 30.36 in 0.5 mi North 16.1 mph 27.6 mph 0.03 in Fog , Snow Snow
4:53 PM 33.1 °F 21.5 °F 30.9 °F 92% 30.40 in 0.8 mi North 19.6 mph 28.8 mph 0.05 in Snow Light Snow
5:53 PM 33.1 °F 21.9 °F 30.0 °F 89% 30.39 in 1.0 mi North 18.4 mph 27.6 mph 0.04 in Snow Light Snow
6:05 PM 33.8 °F 23.5 °F 30.2 °F 87% 30.37 in 0.8 mi North 16.1 mph - 0.01 in Snow Light Snow
6:53 PM 33.1 °F 22.2 °F 30.9 °F 92% 30.40 in 0.2 mi North 17.3 mph 24.2 mph 0.05 in Fog , Snow Snow
7:33 PM 33.8 °F 23.9 °F 30.2 °F 87% 30.36 in 1.0 mi North 15.0 mph 23.0 mph 0.03 in Snow Light Snow
7:53 PM 33.1 °F 22.2 °F 30.9 °F 92% 30.38 in 1.2 mi North 17.3 mph 24.2 mph 0.04 in Snow Light Snow
8:28 PM 33.8 °F 22.8 °F 30.2 °F 87% 30.33 in 2.0 mi North 18.4 mph 26.5 mph 0.00 in Snow Light Snow
8:44 PM 33.8 °F 23.2 °F 30.2 °F 87% 30.33 in 4.0 mi North 17.3 mph 27.6 mph 0.00 in Snow Light Snow
8:53 PM 33.1 °F 21.9 °F 30.9 °F 92% 30.37 in 6.0 mi North 18.4 mph 27.6 mph 0.00 in Snow Light Snow
9:17 PM 33.8 °F 23.9 °F 30.2 °F 87% 30.34 in 9.0 mi North 15.0 mph 25.3 mph N/A   Overcast
9:30 PM 33.8 °F 23.5 °F 30.2 °F 87% 30.34 in 2.5 mi North 16.1 mph 24.2 mph 0.00 in Snow Light Snow
9:46 PM 33.8 °F 23.5 °F 30.2 °F 87% 30.34 in 1.5 mi North 16.1 mph 23.0 mph 0.01 in Snow Light Snow
9:53 PM 33.1 °F 22.6 °F 30.9 °F 92% 30.37 in 1.8 mi North 16.1 mph - 0.01 in Snow Light Snow
10:01 PM 33.8 °F 24.3 °F 30.2 °F 87% 30.33 in 2.0 mi North 13.8 mph - 0.01 in Snow Light Snow
10:12 PM 33.8 °F 24.3 °F 30.2 °F 87% 30.32 in 1.5 mi North 13.8 mph - 0.01 in Snow Light Snow
10:53 PM 33.1 °F 23.9 °F 30.9 °F 92% 30.37 in 2.0 mi NNW 12.7 mph - 0.03 in Snow Light Snow
11:27 PM 33.8 °F 24.8 °F 30.2 °F 87% 30.31 in 1.5 mi North 12.7 mph - 0.01 in Snow Light Snow
11:53 PM 33.1 °F 23.0 °F 30.9 °F 92% 30.32 in 1.2 mi North 15.0 mph - 0.03 in Snow Light Snow